TimeCDT,TemperatureF,Dew PointF,Humidity,Sea Level PressureIn,VisibilityMPH,Wind Direction,Wind SpeedMPH,Gust SpeedMPH,PrecipitationIn,Events,Conditions,WindDirDegrees,DateUTC
12:53 AM,64.9,64.9,100,30.03,6.0,Calm,Calm,-,N/A,,Clear,0,2013-08-21 05:53:00
1:53 AM,64.9,64.9,100,30.02,5.0,Calm,Calm,-,N/A,,Clear,0,2013-08-21 06:53:00
2:53 AM,64.0,64.0,100,30.02,4.0,Calm,Calm,-,N/A,,Clear,0,2013-08-21 07:53:00
3:53 AM,64.0,64.0,100,30.02,4.0,Calm,Calm,-,N/A,,Clear,0,2013-08-21 08:53:00
4:53 AM,63.0,63.0,100,30.03,4.0,Calm,Calm,-,N/A,,Clear,0,2013-08-21 09:53:00
5:53 AM,63.0,62.1,97,30.04,1.5,Calm,Calm,-,N/A,,Clear,0,2013-08-21 10:53:00
6:02 AM,62.6,62.6,100,30.07,3.0,Calm,Calm,-,N/A,,Clear,0,2013-08-21 11:02:00
6:49 AM,62.6,62.6,100,30.07,2.5,Calm,Calm,-,N/A,,Clear,0,2013-08-21 11:49:00
6:53 AM,63.0,62.1,97,30.05,3.0,Calm,Calm,-,N/A,,Clear,0,2013-08-21 11:53:00
7:53 AM,68.0,66.9,96,30.06,6.0,Calm,Calm,-,N/A,,Clear,0,2013-08-21 12:53:00
8:53 AM,73.9,69.1,85,30.06,9.0,SSE,3.5,-,N/A,,Clear,150,2013-08-21 13:53:00
9:53 AM,79.0,68.0,69,30.06,10.0,South,8.1,-,N/A,,Clear,190,2013-08-21 14:53:00
10:53 AM,82.9,68.0,60,30.07,10.0,SSW,8.1,-,N/A,,Clear,200,2013-08-21 15:53:00
11:53 AM,86.0,69.1,57,30.07,10.0,South,9.2,-,N/A,,Clear,190,2013-08-21 16:53:00
12:53 PM,89.1,70.0,53,30.06,10.0,South,4.6,-,N/A,,Clear,180,2013-08-21 17:53:00
1:53 PM,89.1,69.1,52,30.05,10.0,SSW,9.2,-,N/A,,Clear,200,2013-08-21 18:53:00
2:53 PM,91.0,70.0,50,30.04,10.0,South,4.6,-,N/A,,Clear,180,2013-08-21 19:53:00
3:53 PM,90.0,69.1,50,30.02,10.0,SSW,5.8,-,N/A,,Clear,200,2013-08-21 20:53:00
4:53 PM,90.0,69.1,50,30.01,10.0,Variable,4.6,-,N/A,,Clear,0,2013-08-21 21:53:00
5:53 PM,88.0,71.1,57,30.01,10.0,SW,4.6,-,N/A,,Clear,220,2013-08-21 22:53:00
6:53 PM,84.9,73.0,67,30.00,10.0,Calm,Calm,-,N/A,,Clear,0,2013-08-21 23:53:00
7:53 PM,79.0,73.0,82,30.00,9.0,Calm,Calm,-,N/A,,Clear,0,2013-08-22 00:53:00
8:53 PM,73.9,71.1,91,30.01,9.0,Calm,Calm,-,N/A,,Clear,0,2013-08-22 01:53:00
9:53 PM,72.0,71.1,97,30.02,7.0,Calm,Calm,-,N/A,,Clear,0,2013-08-22 02:53:00
10:53 PM,70.0,70.0,100,30.03,6.0,Calm,Calm,-,N/A,,Clear,0,2013-08-22 03:53:00
11:53 PM,69.1,68.0,96,30.04,5.0,Calm,Calm,-,N/A,,Clear,0,2013-08-22 04:53:00